484  
FPUS82 KCHS 150127  
OPUCHS  
 
TEST   
..KCHS/KSAV GATEWAY OBSERVATIONS
 
TEST  
NATIONAL WEATHER SERVICE CHARLESTON SC  
900 PM EDT FRI AUG 14 2020  
 
NOTE: "FAIR" INDICATES FEW OR NO CLOUDS BELOW 12,000 FEET WITH NO  
SIGNIFICANT WEATHER AND/OR OBSTRUCTIONS TO VISIBILITY.  
 
SCZ050-WAZ558-NCZ071-TXZ119-213-PAZ071-DCZ001-FLZ074-172-MI076-  
NYZ176-178-MAZ016-IL014-TNZ027-NJZ106-GAZ044-MD014-150200-  
   
..GATEWAY OBSERVATIONS FOR CHARLESTON INTERNATIONAL
 
 
 
CITY SKY/WX TMP DP RH WIND PRES REMARKS  
CHAS AIRPORT TSTM 79 74 84 S7 29.95R  
SEATTLE MOSUNNY 80 47 31 N13 30.15F  
CHARLOTTE MOCLDY 80 72 76 E8 29.94R  
DALLAS DFW PTCLDY 99 67 35 S15 29.78R HX 103  
DALLAS LOVE PTCLDY 100 67 33 SE10 29.79R HX 105  
PHILLADELPHIA PTCLDY 77 60 55 NE5 29.98R  
WASH NATIONAL CLOUDY 78 70 76 NE5 29.99R  
BALTIMORE CLOUDY 74 71 91 CALM 29.98R  
MIAMI PTCLDY 84 75 74 E7 29.98R HX 92  
DETROIT CLOUDY 76 65 68 W6 30.01S  
NEWARK MOCLDY 79 62 56 CALM 29.97R  
LAGUARDIA PTCLDY 80 66 62 NE9 29.97R  
J F K PTCLDY 76 64 66 E3 29.98R  
BOSTON LOGAN PTCLDY 69 62 78 N8 30.03S  
FT. LAUDERDALE PTCLDY 86 75 69 SE8 29.98R HX 95  
CHICAGO O'HARE PTCLDY 81 57 43 NE8 29.96F  
CHICAGO MIDWAY PTCLDY 80 58 46 NE8 29.96F  
HOUSTON BUSH PTCLDY 92 75 57 S10 29.86R HX 103  
HOUSTON HOBBY PTCLDY 89 72 56 S10 29.87R HX 96  
NASHVILLE LGT RAIN 80 70 71 N5 29.92R  
ATLANTA CLOUDY 76 71 85 S3 29.93S  
LONDON HEATHRW DRZL/FOG 63 63 100 VRB3 29.97S VSB 1  
 

 
 
GAZ044-118-TXZ119-213-NCZ071-DCZ001-MDZ014-506-PAZ021-071-NJZ106-  
NYZ176-178-MAZ106-OHZ011-021-055-MIZ076-KYZ091-ILZ014-INZ047-  
MNZ060-ONZ431-150200-  
   
..GATEWAY OBSERVATIONS FOR SAVANNAH INTERNATIONAL
 
 
 
CITY SKY/WX TMP DP RH WIND PRES REMARKS  
SAVANNAH ARPT CLOUDY 80 76 87 S7 29.94R  
ATLANTA CLOUDY 76 71 85 S3 29.93S  
CHARLOTTE MOCLDY 80 72 76 E8 29.94R  
DALLAS DFW PTCLDY 99 67 35 S15 29.78R HX 103  
HOUSTON BUSH PTCLDY 92 75 57 S10 29.86R HX 103  
WASH NATIONAL CLOUDY 78 70 76 NE5 29.99R  
WASH DULLES CLOUDY 77 70 79 E7 29.99R  
BALTIMORE CLOUDY 74 71 91 CALM 29.98R  
PHILADELPHIA PTCLDY 77 60 55 NE5 29.98R  
NEWARK MOCLDY 79 62 56 CALM 29.97R  
LAGUARDIA PTCLDY 80 66 62 NE9 29.97R  
J F K PTCLDY 76 64 66 E3 29.98R  
BOSTON PTCLDY 69 62 78 N8 30.03S  
PITTSBURG MOCLDY 82 56 40 E6 29.97S  
AKRON PTCLDY 78 60 53 NE7 29.98S  
CLEVELAND MOCLDY 78 65 63 NE8 29.99F  
CINCINNATI CLOUDY 77 71 82 N6 29.95S  
COLUMBUS CLOUDY 74 64 69 SW3 29.95S HAZE  
DETROIT CLOUDY 76 65 68 W6 30.01S  
CHICAGO O'HARE PTCLDY 81 57 43 NE8 29.96F  
MINNEAPOLIS TSTM 62 60 93 W28G64 29.91R VSB 3/4  
INDIANAPOLIS PTCLDY 80 64 58 NE8 29.95R  
TORONTO CANADA PTCLDY 77 54 44 E3 30.06R  
 

 
 
 
CLICK HERE TO GO TO PREVIOUS BULLETINS.

The Nexlab SC Page
The Nexlab GA Page Main Text Page